Year,Month,Day,Hour,Minute,Value (Times are PST for temperature in C)
2015,06,18,00,00,16.70
2015,06,18,00,01,16.70
2015,06,18,00,02,16.60
2015,06,18,00,03,16.60
2015,06,18,00,04,16.60
2015,06,18,00,05,16.60
2015,06,18,00,06,16.60
2015,06,18,00,07,16.60
2015,06,18,00,08,16.60
2015,06,18,00,09,16.60
2015,06,18,00,10,16.60
2015,06,18,00,11,16.50
2015,06,18,00,12,16.50
2015,06,18,00,13,16.50
2015,06,18,00,14,16.50
2015,06,18,00,15,16.50
2015,06,18,00,16,16.50
2015,06,18,00,17,16.50
2015,06,18,00,18,16.40
2015,06,18,00,19,16.40
2015,06,18,00,20,16.40
2015,06,18,00,21,16.40
2015,06,18,00,22,16.40
2015,06,18,00,23,16.40
2015,06,18,00,24,16.40
2015,06,18,00,25,16.40
2015,06,18,00,26,16.30
2015,06,18,00,27,16.30
2015,06,18,00,28,16.30
2015,06,18,00,29,16.30
2015,06,18,00,30,16.30
2015,06,18,00,31,16.30
2015,06,18,00,32,16.30
2015,06,18,00,33,16.30
2015,06,18,00,34,16.30
2015,06,18,00,35,16.20
2015,06,18,00,36,16.20
2015,06,18,00,37,16.20
2015,06,18,00,38,16.20
2015,06,18,00,39,16.20
2015,06,18,00,40,16.20
2015,06,18,00,41,16.20
2015,06,18,00,42,16.20
2015,06,18,00,43,16.20
2015,06,18,00,44,16.10
2015,06,18,00,45,16.10
2015,06,18,00,46,16.10
2015,06,18,00,47,16.10
2015,06,18,00,48,16.10
2015,06,18,00,49,16.10
2015,06,18,00,50,16.10
2015,06,18,00,51,16.10
2015,06,18,00,52,16.10
2015,06,18,00,53,16.10
2015,06,18,00,54,16.10
2015,06,18,00,55,16.10
2015,06,18,00,56,16.00
2015,06,18,00,57,16.00
2015,06,18,00,58,16.00
2015,06,18,00,59,16.00
2015,06,18,01,00,16.00
2015,06,18,01,01,16.00
2015,06,18,01,02,16.00
2015,06,18,01,03,16.00
2015,06,18,01,04,16.00
2015,06,18,01,05,16.00
2015,06,18,01,06,16.00
2015,06,18,01,07,16.00
2015,06,18,01,08,15.90
2015,06,18,01,09,15.90
2015,06,18,01,10,16.00
2015,06,18,01,11,16.00
2015,06,18,01,12,16.00
2015,06,18,01,13,16.00
2015,06,18,01,14,16.00
2015,06,18,01,15,16.00
2015,06,18,01,16,16.00
2015,06,18,01,17,16.00
2015,06,18,01,18,15.90
2015,06,18,01,19,15.90
2015,06,18,01,20,15.90
2015,06,18,01,21,15.90
2015,06,18,01,22,15.90
2015,06,18,01,23,15.90
2015,06,18,01,24,15.90
2015,06,18,01,25,15.90
2015,06,18,01,26,15.90
2015,06,18,01,27,15.90
2015,06,18,01,28,15.90
2015,06,18,01,29,15.90
2015,06,18,01,30,15.90
2015,06,18,01,31,15.90
2015,06,18,01,32,15.90
2015,06,18,01,33,15.90
2015,06,18,01,34,15.90
2015,06,18,01,35,15.80
2015,06,18,01,36,15.80
2015,06,18,01,37,15.80
2015,06,18,01,38,15.80
2015,06,18,01,39,15.80
2015,06,18,01,40,15.80
2015,06,18,01,41,15.80
2015,06,18,01,42,15.80
2015,06,18,01,43,15.80
2015,06,18,01,44,15.80
2015,06,18,01,45,15.80
2015,06,18,01,46,15.80
2015,06,18,01,47,15.80
2015,06,18,01,48,15.80
2015,06,18,01,49,15.80
2015,06,18,01,50,15.80
2015,06,18,01,51,15.80
2015,06,18,01,52,15.80
2015,06,18,01,53,15.80
2015,06,18,01,54,15.80
2015,06,18,01,55,15.80
2015,06,18,01,56,15.80
2015,06,18,01,57,15.80
2015,06,18,01,58,15.70
2015,06,18,01,59,15.70
2015,06,18,02,00,15.70
2015,06,18,02,01,15.70
2015,06,18,02,02,15.70
2015,06,18,02,03,15.70
2015,06,18,02,04,15.70
2015,06,18,02,05,15.70
2015,06,18,02,06,15.70
2015,06,18,02,07,15.70
2015,06,18,02,08,15.70
2015,06,18,02,09,15.70
2015,06,18,02,10,15.70
2015,06,18,02,11,15.70
2015,06,18,02,12,15.70
2015,06,18,02,13,15.70
2015,06,18,02,14,15.60
2015,06,18,02,15,15.60
2015,06,18,02,16,15.60
2015,06,18,02,17,15.60
2015,06,18,02,18,15.60
2015,06,18,02,19,15.60
2015,06,18,02,20,15.60
2015,06,18,02,21,15.60
2015,06,18,02,22,15.60
2015,06,18,02,23,15.60
2015,06,18,02,24,15.60
2015,06,18,02,25,15.60
2015,06,18,02,26,15.60
2015,06,18,02,27,15.60
2015,06,18,02,28,15.60
2015,06,18,02,29,15.60
2015,06,18,02,30,15.60
2015,06,18,02,31,15.60
2015,06,18,02,32,15.60
2015,06,18,02,33,15.60
2015,06,18,02,34,15.60
2015,06,18,02,35,15.60
2015,06,18,02,36,15.50
2015,06,18,02,37,15.50
2015,06,18,02,38,15.50
2015,06,18,02,39,15.50
2015,06,18,02,40,15.50
2015,06,18,02,41,15.50
2015,06,18,02,42,15.50
2015,06,18,02,43,15.50
2015,06,18,02,44,15.40
2015,06,18,02,45,15.50
2015,06,18,02,46,15.40
2015,06,18,02,47,15.40
2015,06,18,02,48,15.40
2015,06,18,02,49,15.40
2015,06,18,02,50,15.40
2015,06,18,02,51,15.40
2015,06,18,02,52,15.40
2015,06,18,02,53,15.40
2015,06,18,02,54,15.40
2015,06,18,02,55,15.40
2015,06,18,02,56,15.40
2015,06,18,02,57,15.40
2015,06,18,02,58,15.30
2015,06,18,02,59,15.30
2015,06,18,03,00,15.30
2015,06,18,03,01,15.30
2015,06,18,03,02,15.30
2015,06,18,03,03,15.30
2015,06,18,03,04,15.30
2015,06,18,03,05,15.30
2015,06,18,03,06,15.30
2015,06,18,03,07,15.30
2015,06,18,03,08,15.30
2015,06,18,03,09,15.20
2015,06,18,03,10,15.20
2015,06,18,03,11,15.20
2015,06,18,03,12,15.20
2015,06,18,03,13,15.20
2015,06,18,03,14,15.20
2015,06,18,03,15,15.20
2015,06,18,03,16,15.20
2015,06,18,03,17,15.20
2015,06,18,03,18,15.20
2015,06,18,03,19,15.20
2015,06,18,03,20,15.20
2015,06,18,03,21,15.20
2015,06,18,03,22,15.10
2015,06,18,03,23,15.10
2015,06,18,03,24,15.10
2015,06,18,03,25,15.10
2015,06,18,03,26,15.10
2015,06,18,03,27,15.10
2015,06,18,03,28,15.10
2015,06,18,03,29,15.10
2015,06,18,03,30,15.10
2015,06,18,03,31,15.10
2015,06,18,03,32,15.10
2015,06,18,03,33,15.00
2015,06,18,03,34,15.00
2015,06,18,03,35,15.00
2015,06,18,03,36,15.00
2015,06,18,03,37,15.00
2015,06,18,03,38,15.00
2015,06,18,03,39,15.00
2015,06,18,03,40,15.00
2015,06,18,03,41,15.00
2015,06,18,03,42,15.00
2015,06,18,03,43,15.00
2015,06,18,03,44,15.00
2015,06,18,03,45,15.00
2015,06,18,03,46,15.00
2015,06,18,03,47,15.00
2015,06,18,03,48,15.00
2015,06,18,03,49,15.00
2015,06,18,03,50,15.00
2015,06,18,03,51,15.00
2015,06,18,03,52,15.00
2015,06,18,03,53,15.00
2015,06,18,03,54,15.00
2015,06,18,03,55,14.90
2015,06,18,03,56,14.90
2015,06,18,03,57,15.00
2015,06,18,03,58,14.90
2015,06,18,03,59,14.90
2015,06,18,04,00,14.90
2015,06,18,04,01,14.90
2015,06,18,04,02,14.90
2015,06,18,04,03,14.90
2015,06,18,04,04,14.90
2015,06,18,04,05,14.90
2015,06,18,04,06,14.90
2015,06,18,04,07,14.90
2015,06,18,04,08,14.90
2015,06,18,04,09,14.90
2015,06,18,04,10,14.90
2015,06,18,04,11,14.90
2015,06,18,04,12,14.90
2015,06,18,04,13,14.90
2015,06,18,04,14,14.90
2015,06,18,04,15,14.90
2015,06,18,04,16,14.90
2015,06,18,04,17,14.90
2015,06,18,04,18,14.90
2015,06,18,04,19,14.90
2015,06,18,04,20,14.90
2015,06,18,04,21,14.90
2015,06,18,04,22,14.90
2015,06,18,04,23,14.90
2015,06,18,04,24,14.80
2015,06,18,04,25,14.80
2015,06,18,04,26,14.80
2015,06,18,04,27,14.80
2015,06,18,04,28,14.80
2015,06,18,04,29,14.80
2015,06,18,04,30,14.80
2015,06,18,04,31,14.80
2015,06,18,04,32,14.80
2015,06,18,04,33,14.80
2015,06,18,04,34,14.80
2015,06,18,04,35,14.80
2015,06,18,04,36,14.80
2015,06,18,04,37,14.80
2015,06,18,04,38,14.80
2015,06,18,04,39,14.70
2015,06,18,04,40,14.70
2015,06,18,04,41,14.70
2015,06,18,04,42,14.70
2015,06,18,04,43,14.70
2015,06,18,04,44,14.70
2015,06,18,04,45,14.70
2015,06,18,04,46,14.70
2015,06,18,04,47,14.70
2015,06,18,04,48,14.70
2015,06,18,04,49,14.70
2015,06,18,04,50,14.70
2015,06,18,04,51,14.70
2015,06,18,04,52,14.70
2015,06,18,04,53,14.70
2015,06,18,04,54,14.70
2015,06,18,04,55,14.70
2015,06,18,04,56,14.60
2015,06,18,04,57,14.60
2015,06,18,04,58,14.60
2015,06,18,04,59,14.60
2015,06,18,05,00,14.60
2015,06,18,05,01,14.60
2015,06,18,05,02,14.60
2015,06,18,05,03,14.60
2015,06,18,05,04,14.60
2015,06,18,05,05,14.60
2015,06,18,05,06,14.60
2015,06,18,05,07,14.60
2015,06,18,05,08,14.60
2015,06,18,05,09,14.60
2015,06,18,05,10,14.60
2015,06,18,05,11,14.60
2015,06,18,05,12,14.60
2015,06,18,05,13,14.60
2015,06,18,05,14,14.50
2015,06,18,05,15,14.50
2015,06,18,05,16,14.50
2015,06,18,05,17,14.50
2015,06,18,05,18,14.50
2015,06,18,05,19,14.50
2015,06,18,05,20,14.50
2015,06,18,05,21,14.40
2015,06,18,05,22,14.40
2015,06,18,05,23,14.40
2015,06,18,05,24,14.40
2015,06,18,05,25,14.40
2015,06,18,05,26,14.40
2015,06,18,05,27,14.40
2015,06,18,05,28,14.40
2015,06,18,05,29,14.40
2015,06,18,05,30,14.40
2015,06,18,05,31,14.40
2015,06,18,05,32,14.40
2015,06,18,05,33,14.40
2015,06,18,05,34,14.30
2015,06,18,05,35,14.30
2015,06,18,05,36,14.30
2015,06,18,05,37,14.30
2015,06,18,05,38,14.30
2015,06,18,05,39,14.30
2015,06,18,05,40,14.30
2015,06,18,05,41,14.30
2015,06,18,05,42,14.30
2015,06,18,05,43,14.30
2015,06,18,05,44,14.30
2015,06,18,05,45,14.30
2015,06,18,05,46,14.30
2015,06,18,05,47,14.30
2015,06,18,05,48,14.30
2015,06,18,05,49,14.30
2015,06,18,05,50,14.30
2015,06,18,05,51,14.30
2015,06,18,05,52,14.30
2015,06,18,05,53,14.30
2015,06,18,05,54,14.30
2015,06,18,05,55,14.20
2015,06,18,05,56,14.20
2015,06,18,05,57,14.20
2015,06,18,05,58,14.20
2015,06,18,05,59,14.20
2015,06,18,06,00,14.20
2015,06,18,06,01,14.20
2015,06,18,06,02,14.20
2015,06,18,06,03,14.20
2015,06,18,06,04,14.20
2015,06,18,06,05,14.20
2015,06,18,06,06,14.20
2015,06,18,06,07,14.20
2015,06,18,06,08,14.20
2015,06,18,06,09,14.20
2015,06,18,06,10,14.20
2015,06,18,06,11,14.20
2015,06,18,06,12,14.20
2015,06,18,06,13,14.20
2015,06,18,06,14,14.20
2015,06,18,06,15,14.20
2015,06,18,06,16,14.20
2015,06,18,06,17,14.20
2015,06,18,06,18,14.30
2015,06,18,06,19,14.30
2015,06,18,06,20,14.30
2015,06,18,06,21,14.30
2015,06,18,06,22,14.30
2015,06,18,06,23,14.30
2015,06,18,06,24,14.30
2015,06,18,06,25,14.30
2015,06,18,06,26,14.40
2015,06,18,06,27,14.40
2015,06,18,06,28,14.40
2015,06,18,06,29,14.40
2015,06,18,06,30,14.40
2015,06,18,06,31,14.40
2015,06,18,06,32,14.50
2015,06,18,06,33,14.50
2015,06,18,06,34,14.50
2015,06,18,06,35,14.50
2015,06,18,06,36,14.60
2015,06,18,06,37,14.60
2015,06,18,06,38,14.60
2015,06,18,06,39,14.60
2015,06,18,06,40,14.70
2015,06,18,06,41,14.70
2015,06,18,06,42,14.70
2015,06,18,06,43,14.80
2015,06,18,06,44,14.80
2015,06,18,06,45,14.80
2015,06,18,06,46,14.90
2015,06,18,06,47,14.90
2015,06,18,06,48,14.90
2015,06,18,06,49,15.00
2015,06,18,06,50,15.00
2015,06,18,06,51,15.10
2015,06,18,06,52,15.10
2015,06,18,06,53,15.10
2015,06,18,06,54,15.10
2015,06,18,06,55,15.10
2015,06,18,06,56,15.20
2015,06,18,06,57,15.20
2015,06,18,06,58,15.20
2015,06,18,06,59,15.20
2015,06,18,07,00,15.20
2015,06,18,07,01,15.30
2015,06,18,07,02,15.30
2015,06,18,07,03,15.30
2015,06,18,07,04,15.30
2015,06,18,07,05,15.40
2015,06,18,07,06,15.40
2015,06,18,07,07,15.40
2015,06,18,07,08,15.40
2015,06,18,07,09,15.40
2015,06,18,07,10,15.50
2015,06,18,07,11,15.50
2015,06,18,07,12,15.50
2015,06,18,07,13,15.60
2015,06,18,07,14,15.60
2015,06,18,07,15,15.60
2015,06,18,07,16,15.60
2015,06,18,07,17,15.70
2015,06,18,07,18,15.70
2015,06,18,07,19,15.70
2015,06,18,07,20,15.70
2015,06,18,07,21,15.70
2015,06,18,07,22,15.70
2015,06,18,07,23,15.80
2015,06,18,07,24,15.80
2015,06,18,07,25,15.80
2015,06,18,07,26,15.80
2015,06,18,07,27,15.90
2015,06,18,07,28,15.90
2015,06,18,07,29,15.90
2015,06,18,07,30,16.00
2015,06,18,07,31,16.00
2015,06,18,07,32,16.10
2015,06,18,07,33,16.10
2015,06,18,07,34,16.20
2015,06,18,07,35,16.20
2015,06,18,07,36,16.20
2015,06,18,07,37,16.30
2015,06,18,07,38,16.30
2015,06,18,07,39,16.30
2015,06,18,07,40,16.30
2015,06,18,07,41,16.40
2015,06,18,07,42,16.40
2015,06,18,07,43,16.40
2015,06,18,07,44,16.50
2015,06,18,07,45,16.50
2015,06,18,07,46,16.60
2015,06,18,07,47,16.60
2015,06,18,07,48,16.60
2015,06,18,07,49,16.70
2015,06,18,07,50,16.70
2015,06,18,07,51,16.70
2015,06,18,07,52,16.70
2015,06,18,07,53,16.80
2015,06,18,07,54,16.80
2015,06,18,07,55,16.90
2015,06,18,07,56,16.90
2015,06,18,07,57,17.00
2015,06,18,07,58,17.00
2015,06,18,07,59,17.10
2015,06,18,08,00,17.10
2015,06,18,08,01,17.20
2015,06,18,08,02,17.20
2015,06,18,08,03,17.30
2015,06,18,08,04,17.30
2015,06,18,08,05,17.30
2015,06,18,08,06,17.40
2015,06,18,08,07,17.40
2015,06,18,08,08,17.50
2015,06,18,08,09,17.50
2015,06,18,08,10,17.60
2015,06,18,08,11,17.60
2015,06,18,08,12,17.60
2015,06,18,08,13,17.60
2015,06,18,08,14,17.60
2015,06,18,08,15,17.70
2015,06,18,08,16,17.70
2015,06,18,08,17,17.70
2015,06,18,08,18,17.70
2015,06,18,08,19,17.80
2015,06,18,08,20,17.80
2015,06,18,08,21,17.80
2015,06,18,08,22,17.80
2015,06,18,08,23,17.80
2015,06,18,08,24,17.90
2015,06,18,08,25,17.90
2015,06,18,08,26,18.00
2015,06,18,08,27,18.00
2015,06,18,08,28,18.10
2015,06,18,08,29,18.10
2015,06,18,08,30,18.10
2015,06,18,08,31,18.20
2015,06,18,08,32,18.20
2015,06,18,08,33,18.20
2015,06,18,08,34,18.20
2015,06,18,08,35,18.30
2015,06,18,08,36,18.30
2015,06,18,08,37,18.30
2015,06,18,08,38,18.30
2015,06,18,08,39,18.30
2015,06,18,08,40,18.30
2015,06,18,08,41,18.30
2015,06,18,08,42,18.40
2015,06,18,08,43,18.40
2015,06,18,08,44,18.40
2015,06,18,08,45,18.40
2015,06,18,08,46,18.50
2015,06,18,08,47,18.50
2015,06,18,08,48,18.60
2015,06,18,08,49,18.60
2015,06,18,08,50,18.70
2015,06,18,08,51,18.70
2015,06,18,08,52,18.80
2015,06,18,08,53,18.80
2015,06,18,08,54,18.80
2015,06,18,08,55,18.90
2015,06,18,08,56,18.90
2015,06,18,08,57,18.90
2015,06,18,08,58,19.00
2015,06,18,08,59,19.00
2015,06,18,09,00,19.10
2015,06,18,09,01,19.10
2015,06,18,09,02,19.20
2015,06,18,09,03,19.20
2015,06,18,09,04,19.30
2015,06,18,09,05,19.30
2015,06,18,09,06,19.40
2015,06,18,09,07,19.50
2015,06,18,09,08,19.50
2015,06,18,09,09,19.60
2015,06,18,09,10,19.70
2015,06,18,09,11,19.80
2015,06,18,09,12,19.90
2015,06,18,09,13,19.90
2015,06,18,09,14,20.00
2015,06,18,09,15,20.10
2015,06,18,09,16,20.10
2015,06,18,09,17,20.10
2015,06,18,09,18,20.10
2015,06,18,09,19,20.10
2015,06,18,09,20,20.10
2015,06,18,09,21,20.10
2015,06,18,09,22,20.20
2015,06,18,09,23,20.20
2015,06,18,09,24,20.30
2015,06,18,09,25,20.30
2015,06,18,09,26,20.40
2015,06,18,09,27,20.40
2015,06,18,09,28,20.40
2015,06,18,09,29,20.40
2015,06,18,09,30,20.50
2015,06,18,09,31,20.50
2015,06,18,09,32,20.60
2015,06,18,09,33,20.70
2015,06,18,09,34,20.70
2015,06,18,09,35,20.80
2015,06,18,09,36,20.90
2015,06,18,09,37,20.90
2015,06,18,09,38,21.00
2015,06,18,09,39,21.00
2015,06,18,09,40,21.10
2015,06,18,09,41,21.10
2015,06,18,09,42,21.10
2015,06,18,09,43,21.10
2015,06,18,09,44,21.00
2015,06,18,09,45,20.90
2015,06,18,09,46,20.90
2015,06,18,09,47,21.00
2015,06,18,09,48,21.00
2015,06,18,09,49,21.10
2015,06,18,09,50,21.10
2015,06,18,09,51,21.10
2015,06,18,09,52,21.20
2015,06,18,09,53,21.20
2015,06,18,09,54,21.30
2015,06,18,09,55,21.40
2015,06,18,09,56,21.50
2015,06,18,09,57,21.50
2015,06,18,09,58,21.60
2015,06,18,09,59,21.60
2015,06,18,10,00,21.60
2015,06,18,10,01,21.70
2015,06,18,10,02,21.80
2015,06,18,10,03,21.80
2015,06,18,10,04,21.90
2015,06,18,10,05,21.90
2015,06,18,10,06,21.90
2015,06,18,10,07,21.90
2015,06,18,10,08,21.80
2015,06,18,10,09,21.80
2015,06,18,10,10,21.80
2015,06,18,10,11,21.80
2015,06,18,10,12,21.80
2015,06,18,10,13,21.80
2015,06,18,10,14,21.80
2015,06,18,10,15,21.80
2015,06,18,10,16,21.80
2015,06,18,10,17,21.80
2015,06,18,10,18,21.80
2015,06,18,10,19,21.80
2015,06,18,10,20,21.80
2015,06,18,10,21,21.90
2015,06,18,10,22,21.90
2015,06,18,10,23,21.90
2015,06,18,10,24,22.00
2015,06,18,10,25,22.00
2015,06,18,10,26,22.10
2015,06,18,10,27,22.10
2015,06,18,10,28,22.10
2015,06,18,10,29,22.20
2015,06,18,10,30,22.20
2015,06,18,10,31,22.20
2015,06,18,10,32,22.30
2015,06,18,10,33,22.30
2015,06,18,10,34,22.30
2015,06,18,10,35,22.40
2015,06,18,10,36,22.50
2015,06,18,10,37,22.60
2015,06,18,10,38,22.70
2015,06,18,10,39,22.80
2015,06,18,10,40,22.80
2015,06,18,10,41,22.90
2015,06,18,10,42,22.90
2015,06,18,10,43,23.00
2015,06,18,10,44,23.10
2015,06,18,10,45,23.10
2015,06,18,10,46,23.20
2015,06,18,10,47,23.20
2015,06,18,10,48,23.30
2015,06,18,10,49,23.30
2015,06,18,10,50,23.30
2015,06,18,10,51,23.30
2015,06,18,10,52,23.40
2015,06,18,10,53,23.40
2015,06,18,10,54,23.50
2015,06,18,10,55,23.50
2015,06,18,10,56,23.60
2015,06,18,10,57,23.70
2015,06,18,10,58,23.80
2015,06,18,10,59,23.90
2015,06,18,11,00,23.90
2015,06,18,11,01,23.80
2015,06,18,11,02,23.70
2015,06,18,11,03,23.60
2015,06,18,11,04,23.60
2015,06,18,11,05,23.60
2015,06,18,11,06,23.50
2015,06,18,11,07,23.50
2015,06,18,11,08,23.50
2015,06,18,11,09,23.50
2015,06,18,11,10,23.50
2015,06,18,11,11,23.50
2015,06,18,11,12,23.60
2015,06,18,11,13,23.60
2015,06,18,11,14,23.60
2015,06,18,11,15,23.70
2015,06,18,11,16,23.70
2015,06,18,11,17,23.70
2015,06,18,11,18,23.70
2015,06,18,11,19,23.70
2015,06,18,11,20,23.70
2015,06,18,11,21,23.70
2015,06,18,11,22,23.70
2015,06,18,11,23,23.80
2015,06,18,11,24,23.80
2015,06,18,11,25,23.90
2015,06,18,11,26,23.90
2015,06,18,11,27,24.00
2015,06,18,11,28,24.00
2015,06,18,11,29,23.90
2015,06,18,11,30,24.00
2015,06,18,11,31,24.00
2015,06,18,11,32,24.00
2015,06,18,11,33,24.00
2015,06,18,11,34,24.00
2015,06,18,11,35,24.00
2015,06,18,11,36,24.00
2015,06,18,11,37,24.00
2015,06,18,11,38,24.00
2015,06,18,11,39,24.00
2015,06,18,11,40,23.90
2015,06,18,11,41,23.80
2015,06,18,11,42,23.70
2015,06,18,11,43,23.70
2015,06,18,11,44,23.60
2015,06,18,11,45,23.50
2015,06,18,11,46,23.40
2015,06,18,11,47,23.40
2015,06,18,11,48,23.40
2015,06,18,11,49,23.50
2015,06,18,11,50,23.50
2015,06,18,11,51,23.60
2015,06,18,11,52,23.60
2015,06,18,11,53,23.60
2015,06,18,11,54,23.70
2015,06,18,11,55,23.70
2015,06,18,11,56,23.70
2015,06,18,11,57,23.70
2015,06,18,11,58,23.60
2015,06,18,11,59,23.60
2015,06,18,12,00,23.50
2015,06,18,12,01,23.50
2015,06,18,12,02,23.40
2015,06,18,12,03,23.40
2015,06,18,12,04,23.40
2015,06,18,12,05,23.40
2015,06,18,12,06,23.40
2015,06,18,12,07,23.40
2015,06,18,12,08,23.30
2015,06,18,12,09,23.30
2015,06,18,12,10,23.30
2015,06,18,12,11,23.20
2015,06,18,12,12,23.20
2015,06,18,12,13,23.10
2015,06,18,12,14,23.10
2015,06,18,12,15,23.00
2015,06,18,12,16,22.90
2015,06,18,12,17,22.90
2015,06,18,12,18,22.90
2015,06,18,12,19,22.90
2015,06,18,12,20,23.00
2015,06,18,12,21,23.00
2015,06,18,12,22,23.00
2015,06,18,12,23,23.00
2015,06,18,12,24,23.00
2015,06,18,12,25,22.90
2015,06,18,12,26,22.90
2015,06,18,12,27,22.90
2015,06,18,12,28,22.90
2015,06,18,12,29,22.90
2015,06,18,12,30,22.90
2015,06,18,12,31,23.00
2015,06,18,12,32,23.00
2015,06,18,12,33,23.10
2015,06,18,12,34,23.10
2015,06,18,12,35,23.10
2015,06,18,12,36,23.10
2015,06,18,12,37,23.10
2015,06,18,12,38,23.00
2015,06,18,12,39,23.00
2015,06,18,12,40,23.00
2015,06,18,12,41,23.00
2015,06,18,12,42,23.10
2015,06,18,12,43,23.20
2015,06,18,12,44,23.20
2015,06,18,12,45,23.30
2015,06,18,12,46,23.30
2015,06,18,12,47,23.40
2015,06,18,12,48,23.40
2015,06,18,12,49,23.30
2015,06,18,12,50,23.30
2015,06,18,12,51,23.30
2015,06,18,12,52,23.30
2015,06,18,12,53,23.30
2015,06,18,12,54,23.40
2015,06,18,12,55,23.50
2015,06,18,12,56,23.50
2015,06,18,12,57,23.60
2015,06,18,12,58,23.60
2015,06,18,12,59,23.60
2015,06,18,13,00,23.60
2015,06,18,13,01,23.60
2015,06,18,13,02,23.60
2015,06,18,13,03,23.60
2015,06,18,13,04,23.60
2015,06,18,13,05,23.60
2015,06,18,13,06,23.50
2015,06,18,13,07,23.50
2015,06,18,13,08,23.60
2015,06,18,13,09,23.60
2015,06,18,13,10,23.50
2015,06,18,13,11,23.50
2015,06,18,13,12,23.50
2015,06,18,13,13,23.40
2015,06,18,13,14,23.30
2015,06,18,13,15,23.30
2015,06,18,13,16,23.20
2015,06,18,13,17,23.10
2015,06,18,13,18,23.00
2015,06,18,13,19,22.90
2015,06,18,13,20,22.90
2015,06,18,13,21,22.80
2015,06,18,13,22,22.70
2015,06,18,13,23,22.60
2015,06,18,13,24,22.50
2015,06,18,13,25,22.50
2015,06,18,13,26,22.40
2015,06,18,13,27,22.30
2015,06,18,13,28,22.30
2015,06,18,13,29,22.20
2015,06,18,13,30,22.20
2015,06,18,13,31,22.20
2015,06,18,13,32,22.20
2015,06,18,13,33,22.20
2015,06,18,13,34,22.20
2015,06,18,13,35,22.20
2015,06,18,13,36,22.20
2015,06,18,13,37,22.20
2015,06,18,13,38,22.20
2015,06,18,13,39,22.10
2015,06,18,13,40,22.00
2015,06,18,13,41,21.90
2015,06,18,13,42,21.90
2015,06,18,13,43,21.90
2015,06,18,13,44,21.80
2015,06,18,13,45,21.80
2015,06,18,13,46,21.80
2015,06,18,13,47,21.80
2015,06,18,13,48,21.80
2015,06,18,13,49,21.70
2015,06,18,13,50,21.70
2015,06,18,13,51,21.70
2015,06,18,13,52,21.70
2015,06,18,13,53,21.60
2015,06,18,13,54,21.60
2015,06,18,13,55,21.60
2015,06,18,13,56,21.60
2015,06,18,13,57,21.50
2015,06,18,13,58,21.50
2015,06,18,13,59,21.50
2015,06,18,14,00,21.40
2015,06,18,14,01,21.40
2015,06,18,14,02,21.40
2015,06,18,14,03,21.30
2015,06,18,14,04,21.30
2015,06,18,14,05,21.30
2015,06,18,14,06,21.30
2015,06,18,14,07,21.30
2015,06,18,14,08,21.30
2015,06,18,14,09,21.30
2015,06,18,14,10,21.30
2015,06,18,14,11,21.30
2015,06,18,14,12,21.30
2015,06,18,14,13,21.30
2015,06,18,14,14,21.30
2015,06,18,14,15,21.30
2015,06,18,14,16,21.30
2015,06,18,14,17,21.30
2015,06,18,14,18,21.30
2015,06,18,14,19,21.30
2015,06,18,14,20,21.30
2015,06,18,14,21,21.30
2015,06,18,14,22,21.30
2015,06,18,14,23,21.40
2015,06,18,14,24,21.40
2015,06,18,14,25,21.40
2015,06,18,14,26,21.40
2015,06,18,14,27,21.50
2015,06,18,14,28,21.50
2015,06,18,14,29,21.50
2015,06,18,14,30,21.50
2015,06,18,14,31,21.60
2015,06,18,14,32,21.60
2015,06,18,14,33,21.60
2015,06,18,14,34,21.60
2015,06,18,14,35,21.60
2015,06,18,14,36,21.70
2015,06,18,14,37,21.60
2015,06,18,14,38,21.60
2015,06,18,14,39,21.60
2015,06,18,14,40,21.60
2015,06,18,14,41,21.70
2015,06,18,14,42,21.70
2015,06,18,14,43,21.70
2015,06,18,14,44,21.70
2015,06,18,14,45,21.70
2015,06,18,14,46,21.70
2015,06,18,14,47,21.80
2015,06,18,14,48,21.80
2015,06,18,14,49,21.80
2015,06,18,14,50,21.80
2015,06,18,14,51,21.80
2015,06,18,14,52,21.80
2015,06,18,14,53,21.80
2015,06,18,14,54,21.80
2015,06,18,14,55,21.80
2015,06,18,14,56,21.80
2015,06,18,14,57,21.80
2015,06,18,14,58,21.80
2015,06,18,14,59,21.80
2015,06,18,15,00,21.90
2015,06,18,15,01,21.90
2015,06,18,15,02,21.90
2015,06,18,15,03,21.90
2015,06,18,15,04,22.00
2015,06,18,15,05,22.00
2015,06,18,15,06,22.00
2015,06,18,15,07,22.10
2015,06,18,15,08,22.10
2015,06,18,15,09,22.20
2015,06,18,15,10,22.20
2015,06,18,15,11,22.20
2015,06,18,15,12,22.20
2015,06,18,15,13,22.20
2015,06,18,15,14,22.20
2015,06,18,15,15,22.20
2015,06,18,15,16,22.20
2015,06,18,15,17,22.20
2015,06,18,15,18,22.20
2015,06,18,15,19,22.10
2015,06,18,15,20,22.10
2015,06,18,15,21,22.20
2015,06,18,15,22,22.20
2015,06,18,15,23,22.20
2015,06,18,15,24,22.20
2015,06,18,15,25,22.30
2015,06,18,15,26,22.30
2015,06,18,15,27,22.30
2015,06,18,15,28,22.30
2015,06,18,15,29,22.40
2015,06,18,15,30,22.40
2015,06,18,15,31,22.40
2015,06,18,15,32,22.40
2015,06,18,15,33,22.50
2015,06,18,15,34,22.50
2015,06,18,15,35,22.40
2015,06,18,15,36,22.40
2015,06,18,15,37,22.40
2015,06,18,15,38,22.40
2015,06,18,15,39,22.40
2015,06,18,15,40,22.40
2015,06,18,15,41,22.40
2015,06,18,15,42,22.40
2015,06,18,15,43,22.40
2015,06,18,15,44,22.30
2015,06,18,15,45,22.30
2015,06,18,15,46,22.20
2015,06,18,15,47,22.20
2015,06,18,15,48,22.20
2015,06,18,15,49,22.10
2015,06,18,15,50,22.10
2015,06,18,15,51,22.10
2015,06,18,15,52,22.10
2015,06,18,15,53,22.10
2015,06,18,15,54,22.10
2015,06,18,15,55,22.10
2015,06,18,15,56,22.10
2015,06,18,15,57,22.10
2015,06,18,15,58,22.10
2015,06,18,15,59,22.10
2015,06,18,16,00,22.10
2015,06,18,16,01,22.10
2015,06,18,16,02,22.10
2015,06,18,16,03,22.10
2015,06,18,16,04,22.10
2015,06,18,16,05,22.10
2015,06,18,16,06,22.00
2015,06,18,16,07,22.00
2015,06,18,16,08,22.00
2015,06,18,16,09,22.00
2015,06,18,16,10,21.90
2015,06,18,16,11,21.90
2015,06,18,16,12,21.80
2015,06,18,16,13,21.80
2015,06,18,16,14,21.80
2015,06,18,16,15,21.70
2015,06,18,16,16,21.60
2015,06,18,16,17,21.60
2015,06,18,16,18,21.50
2015,06,18,16,19,21.50
2015,06,18,16,20,21.40
2015,06,18,16,21,21.40
2015,06,18,16,22,21.30
2015,06,18,16,23,21.30
2015,06,18,16,24,21.30
2015,06,18,16,25,21.20
2015,06,18,16,26,21.20
2015,06,18,16,27,21.20
2015,06,18,16,28,21.10
2015,06,18,16,29,21.10
2015,06,18,16,30,21.10
2015,06,18,16,31,21.00
2015,06,18,16,32,20.90
2015,06,18,16,33,20.80
2015,06,18,16,34,20.70
2015,06,18,16,35,20.60
2015,06,18,16,36,20.60
2015,06,18,16,37,20.50
2015,06,18,16,38,20.40
2015,06,18,16,39,20.40
2015,06,18,16,40,20.40
2015,06,18,16,41,20.30
2015,06,18,16,42,20.20
2015,06,18,16,43,20.20
2015,06,18,16,44,20.10
2015,06,18,16,45,20.10
2015,06,18,16,46,20.00
2015,06,18,16,47,20.00
2015,06,18,16,48,19.90
2015,06,18,16,49,19.90
2015,06,18,16,50,19.90
2015,06,18,16,51,19.80
2015,06,18,16,52,19.80
2015,06,18,16,53,19.80
2015,06,18,16,54,19.80
2015,06,18,16,55,19.80
2015,06,18,16,56,19.70
2015,06,18,16,57,19.70
2015,06,18,16,58,19.70
2015,06,18,16,59,19.70
2015,06,18,17,00,19.60
2015,06,18,17,01,19.60
2015,06,18,17,02,19.60
2015,06,18,17,03,19.60
2015,06,18,17,04,19.50
2015,06,18,17,05,19.50
2015,06,18,17,06,19.50
2015,06,18,17,07,19.50
2015,06,18,17,08,19.40
2015,06,18,17,09,19.40
2015,06,18,17,10,19.40
2015,06,18,17,11,19.40
2015,06,18,17,12,19.30
2015,06,18,17,13,19.30
2015,06,18,17,14,19.30
2015,06,18,17,15,19.30
2015,06,18,17,16,19.30
2015,06,18,17,17,19.30
2015,06,18,17,18,19.30
2015,06,18,17,19,19.30